This is the latest recevied weather packets stored in our database for station/object K1AWR. If no packets are shown the sender has not sent any weather packets the latest 10 day(s).
| Time | Temp. | Humidity | Pressure | Rain* | Wind** | Luminosity | Snow |
|---|---|---|---|---|---|---|---|
| 1777674144 | 16.67° C | 40% | 1010 hPa | 0 mm | - | 37 W/m² | - |
| 1777673840 | 16.67° C | 37% | 1009.8 hPa | 0 mm | - | 37 W/m² | - |
| 1777673537 | 17.22° C | 34% | 1010.1 hPa | 0 mm | - | 42 W/m² | - |
| 1777673235 | 17.22° C | 32% | 1010 hPa | 0 mm | - | 48 W/m² | - |
| 1777672932 | 17.22° C | 33% | 1010.1 hPa | 0 mm | - | 54 W/m² | - |
| 1777672629 | 17.78° C | 33% | 1010 hPa | 0 mm | - | 54 W/m² | - |
| 1777672324 | 17.78° C | 32% | 1010 hPa | 0 mm | - | 60 W/m² | - |
| 1777672019 | 17.78° C | 31% | 1010 hPa | 0 mm | - | 106 W/m² | - |
| 1777671714 | 17.78° C | 33% | 1010.1 hPa | 0 mm | - | 80 W/m² | - |
| 1777671412 | 17.78° C | 32% | 1010 hPa | 0 mm | - | 66 W/m² | - |
| 1777671107 | 17.78° C | 36% | 1010.1 hPa | 0 mm | - | 60 W/m² | - |
| 1777670804 | 18.33° C | 32% | 1010.2 hPa | 0 mm | - | 129 W/m² | - |
| 1777670501 | 19.44° C | 32% | 1010.1 hPa | 0 mm | - | 286 W/m² | - |
| 1777670198 | 20° C | 29% | 1010.1 hPa | 0 mm | - | 311 W/m² | - |
| 1777669895 | 18.89° C | 31% | 1010 hPa | 0 mm | - | 351 W/m² | - |
| 1777669592 | 18.33° C | 35% | 1010 hPa | 0 mm | - | 366 W/m² | - |
| 1777669289 | 17.78° C | 35% | 1010 hPa | 0 mm | - | 159 W/m² | - |
| 1777668985 | 18.89° C | 35% | 1010.1 hPa | 0 mm | - | 182 W/m² | - |
| 1777668683 | 19.44° C | 31% | 1010 hPa | 0 mm | - | 382 W/m² | - |
| 1777668379 | 18.89° C | 30% | 1010.1 hPa | 0 mm | - | 322 W/m² | - |
| 1777668075 | 18.89° C | 31% | 1009.9 hPa | 0 mm | - | 423 W/m² | - |
| 1777667772 | 18.89° C | 29% | 1010.1 hPa | 0 mm | - | 430 W/m² | - |
| 1777667469 | 20° C | 37% | 1009.9 hPa | 0 mm | - | 444 W/m² | - |
| 1777667166 | 20° C | 31% | 1009.9 hPa | 0 mm | - | 471 W/m² | - |
| 1777666863 | 18.89° C | 34% | 1010 hPa | 0 mm | - | 494 W/m² | - |
* Rain latest hour (hover to see other rain measurements)
** Current wind speed in m/s (hover to see current wind gust speed)